| time (UTC) | temp C | wind direction | speed KPH | gust KPH | rain 1hr cm | rain 24hr cm | rain mn cm | humidity % | barometer mb |
| 20260504034528 | 11 | 328 | 8.0 | 16.1 | 0.00 | 0.00 | 0.00 | 51 | 1011.8 |
| 20260504033028 | 11 | 338 | 0.0 | 1.6 | 0.00 | 0.00 | 0.00 | 49 | 1011.2 |
| 20260504031528 | 12 | 318 | 3.2 | 4.8 | 0.00 | 0.00 | 0.00 | 47 | 1011.0 |
| 20260504030034 | 12 | 4 | 4.8 | 11.3 | 0.00 | 0.00 | 0.00 | 45 | 1010.7 |
| 20260504024528 | 12 | 1 | 8.0 | 17.7 | 0.00 | 0.00 | 0.00 | 45 | 1010.6 |
| 20260504023026 | 13 | 13 | 8.0 | 16.1 | 0.00 | 0.00 | 0.00 | 44 | 1010.4 |
| 20260504021526 | 15 | 14 | 17.7 | 25.7 | 0.00 | 0.00 | 0.00 | 40 | 1010.4 |
| 20260504020034 | 16 | 3 | 17.7 | 32.2 | 0.00 | 0.00 | 0.00 | 38 | 1010.4 |
| 20260504014525 | 17 | 354 | 19.3 | 33.8 | 0.00 | 0.00 | 0.00 | 37 | 1010.2 |
| 20260504013030 | 18 | 310 | 14.5 | 25.7 | 0.00 | 0.00 | 0.00 | 34 | 1010.1 |
| 20260504011522 | 19 | 325 | 19.3 | 27.4 | 0.00 | 0.00 | 0.00 | 29 | 1010.1 |
| 20260504010022 | 20 | 330 | 17.7 | 27.4 | 0.00 | 0.00 | 0.00 | 27 | 1010.0 |
| 20260504004535 | 21 | 333 | 17.7 | 32.2 | 0.00 | 0.00 | 0.00 | 26 | 1010.0 |
| 20260504003018 | 21 | 300 | 17.7 | 32.2 | 0.00 | 0.00 | 0.00 | 24 | 1010.0 |
| 20260504001529 | 21 | 329 | 22.5 | 32.2 | 0.00 | 0.00 | 0.00 | 24 | 1010.1 |
| 20260504000016 | 21 | 295 | 22.5 | 38.6 | 0.00 | 0.00 | 0.00 | 24 | 1010.3 |
| 20260503234517 | 21 | 300 | 22.5 | 30.6 | 0.00 | 0.00 | 0.00 | 23 | 1010.4 |
| 20260503233013 | 21 | 290 | 22.5 | 38.6 | 0.00 | 0.00 | 0.00 | 23 | 1010.4 |
| 20260503231510 | 21 | 304 | 24.1 | 33.8 | 0.00 | 0.00 | 0.00 | 22 | 1010.5 |
| 20260503230008 | 21 | 292 | 19.3 | 37.0 | 0.00 | 0.00 | 0.00 | 24 | 1010.6 |
| 20260503224505 | 21 | 300 | 19.3 | 33.8 | 0.00 | 0.00 | 0.00 | 25 | 1010.7 |
| 20260503223009 | 21 | 318 | 19.3 | 37.0 | 0.00 | 0.00 | 0.00 | 23 | 1010.8 |
| 20260503221503 | 21 | 307 | 20.9 | 35.4 | 0.00 | 0.00 | 0.00 | 23 | 1010.9 |
| 20260503220003 | 21 | 305 | 20.9 | 33.8 | 0.00 | 0.00 | 0.00 | 24 | 1011.0 |
| 20260503214600 | 21 | 284 | 22.5 | 33.8 | 0.00 | 0.00 | 0.00 | 24 | 1011.2 |
| 20260503213058 | 21 | 300 | 25.7 | 35.4 | 0.00 | 0.00 | 0.00 | 22 | 1011.3 |
| 20260503211556 | 21 | 313 | 29.0 | 37.0 | 0.00 | 0.00 | 0.00 | 22 | 1011.7 |
| 20260503210053 | 20 | 295 | 19.3 | 35.4 | 0.00 | 0.00 | 0.00 | 24 | 1011.8 |
| 20260503204552 | 20 | 304 | 20.9 | 40.2 | 0.00 | 0.00 | 0.00 | 25 | 1011.7 |
| 20260503203050 | 20 | 308 | 19.3 | 32.2 | 0.00 | 0.00 | 0.00 | 26 | 1012.0 |
| 20260503201551 | 20 | 293 | 20.9 | 33.8 | 0.00 | 0.00 | 0.00 | 23 | 1012.2 |
| 20260503200047 | 20 | 285 | 25.7 | 38.6 | 0.00 | 0.00 | 0.00 | 26 | 1012.3 |
| 20260503194553 | 20 | 288 | 24.1 | 35.4 | 0.00 | 0.00 | 0.00 | 26 | 1012.4 |
| 20260503193041 | 20 | 279 | 22.5 | 38.6 | 0.00 | 0.00 | 0.00 | 26 | 1012.7 |
| 20260503191539 | 19 | 304 | 20.9 | 35.4 | 0.00 | 0.00 | 0.00 | 25 | 1013.1 |
| 20260503190045 | 18 | 305 | 20.9 | 30.6 | 0.00 | 0.00 | 0.00 | 27 | 1013.2 |
| 20260503184535 | 18 | 298 | 19.3 | 29.0 | 0.00 | 0.00 | 0.00 | 27 | 1013.4 |
| 20260503183038 | 18 | 295 | 17.7 | 25.7 | 0.00 | 0.00 | 0.00 | 27 | 1013.6 |
| 20260503181549 | 18 | 304 | 20.9 | 25.7 | 0.00 | 0.00 | 0.00 | 29 | 1013.7 |
| 20260503180041 | 18 | 273 | 14.5 | 22.5 | 0.00 | 0.00 | 0.00 | 31 | 1013.8 |
| 20260503174524 | 17 | 259 | 14.5 | 24.1 | 0.00 | 0.00 | 0.00 | 33 | 1014.1 |
| 20260503173023 | 17 | 294 | 14.5 | 29.0 | 0.00 | 0.00 | 0.00 | 34 | 1014.2 |
| 20260503171525 | 17 | 293 | 14.5 | 25.7 | 0.00 | 0.00 | 0.00 | 33 | 1014.4 |
| 20260503120142 | 11 | 252 | 9.7 | 16.1 | 0.00 | 0.00 | 0.00 | 56 | 1014.4 |
| 20260503081511 | 3 | 13 | 0.0 | 11.3 | 0.00 | 0.00 | 0.00 | 83 | 1016.0 |
| 20260503071501 | 3 | 82 | 3.2 | 4.8 | 0.00 | 0.00 | 0.00 | 83 | 1016.4 |
| 20260503054546 | 5 | 239 | 0.0 | 0.0 | 0.00 | 0.00 | 0.00 | 77 | 1016.7 |
| 20260503053047 | 5 | 239 | 0.0 | 3.2 | 0.00 | 0.00 | 0.00 | 75 | 1016.9 |
| 20260503051545 | 6 | 356 | 0.0 | 3.2 | 0.00 | 0.00 | 0.00 | 73 | 1017.0 |
| 20260503050045 | 6 | 62 | 3.2 | 4.8 | 0.00 | 0.00 | 0.00 | 74 | 1017.1 |
| 20260503044600 | 6 | 39 | 3.2 | 3.2 | 0.00 | 0.00 | 0.00 | 75 | 1017.1 |
| 20260503043045 | 7 | 231 | 0.0 | 3.2 | 0.00 | 0.00 | 0.00 | 67 | 1017.1 |
| 20260503041602 | 9 | 79 | 4.8 | 8.0 | 0.00 | 0.00 | 0.00 | 62 | 1017.0 |
| 20260503040051 | 10 | 98 | 1.6 | 3.2 | 0.00 | 0.00 | 0.00 | 61 | 1016.9 |